Regional Weather Roundup
Issued by NWS

Home | Current Version | Previous Version | Graphics & Text | Print | Product List | Glossary On
Versions: 1 2 3 4 5 6 7 8 9 10 11 12 13 14 15 16 17 18 19 20 21 22 23 24 25 26 27 28 29 30 31 32 33 34 35 36 37 38 39 40 41 42 43 44 45 46 47 48 49 50
000
ASUS43 KLMK 222202
RWRKY
KENTUCKY REGIONAL WEATHER ROUNDUP
NATIONAL WEATHER SERVICE LOUISVILLE KY
500 PM EST SUN JAN 22 2017

NOTE "FAIR" INDICATES FEW OR NO CLOUDS BELOW 12,000 FEET
WITH NO SIGNIFICANT WEATHER AND/OR OBSTRUCTIONS TO VISIBILITY.

KYZ001>023-026-027-061>063-070>075-222300-
WESTERN AND SOUTH CENTRAL KENTUCKY

CITY           SKY/WX    TMP DP  RH WIND       PRES   REMARKS
PADUCAH        PTSUNNY   63  50  62 NE15      29.32R
HENDERSON      SUNNY     57  48  72 NE10      29.33S
OWENSBORO      PTCLDY    60  52  74 NE10G20   29.34S
HOPKINSVILLE   CLOUDY    61  54  79 N8        29.32R
BOWLING GREEN  PTCLDY    63  53  70 NE7       29.33R
GLASGOW        NOT AVBL
$$

KYZ024-025-028>034-038-045-046-053-222300-
NORTH CENTRAL KENTUCKY

CITY           SKY/WX    TMP DP  RH WIND       PRES   REMARKS
LOUISVILLE/SDF MOCLDY    62  49  62 NE17G29   29.34F
LOUISVILLE/LOU CLEAR     62  50  64 NE14G25   29.33F
FORT KNOX      CLEAR     57  52  82 N12       29.33R
$$

KYZ035>037-039>044-047>052-055>060-089>105-222300-
NORTHEAST KENTUCKY

CITY           SKY/WX    TMP DP  RH WIND       PRES   REMARKS
LEXINGTON      CLOUDY    58  51  78 NE14      29.39S
COVINGTON      MOCLDY    61  49  64 NE15      29.43F
FRANKFORT      CLOUDY    59  50  72 E8        29.36F
$$

KYZ054-064>069-076>088-106>120-222300-
SOUTHEAST KENTUCKY

CITY           SKY/WX    TMP DP  RH WIND       PRES   REMARKS
JACKSON        LGT RAIN  56  53  90 VRB3      29.39F
LONDON         CLOUDY    58  51  78 CALM      29.37F
SOMERSET       NOT AVBL
MIDDLESBORO    CLOUDY    58  56  90 S3        29.36F
MONTICELLO     CLOUDY    58  52  80 VRB5      29.38F
$$





USA.gov is the U.S. government's official web portal to all federal, state and local government web resources and services.